Zurück zum Katalog

FENGYUN 1C DEB

LostPO
NORAD 37411·DEBRIS·🇨🇳 China

Gestartet May 10, 1999 von Taiyuan Satellite Launch Center

Loading…

Nächste Überflüge (nächste 24 Stunden)

TLE

VeraltetSource: Space-Track

Epoche: Dec 27, 2021, 11:50 UTC

1 37411U 99025EGD 21361.49338729  .00001870  00000-0  10705-2 0  9990
2 37411  97.8062 252.6541 0274796  16.9819 344.0321 13.93147693666184

Verfolge FENGYUN 1C DEB in Echtzeit mit AllMySat

Download on the App Store